#timestamp,LO_Frequency,Hit,StdDev 
1579935615.6,286047011.8,N
1579935635.4,286047016.7,N
1579935655.2,286047015.6,N
1579935675.1,286047014.7,N
1579935676.0,286047014.7,N
1579935695.8,286047022.5,N
1579935715.7,286047027.2,N
1579935735.5,286047036.0,Y
1579935755.3,286047028.9,P
1579935775.2,286047032.4,P
1579935795.0,286047029.2,N
1579935795.9,286047029.2,Y
1579935815.7,286047000.6,P
1579935835.6,286047003.2,N
1579935855.4,286047012.9,N
1579935875.3,286047016.7,N
1579935895.1,286047021.8,N
1579935896.0,286047021.8,N
1579935915.8,286047013.3,N
1579935935.7,286047018.8,N
1579935955.5,286047021.3,N
1579935975.3,286047016.2,N
1579935995.2,286047019.7,N
1579936045.1,286047018.2,E
1579936055.9,286047006.8,N
1579936075.7,286046994.4,P
1579936095.5,286046989.5,N
1579936115.4,286046987.6,N
1579936135.2,286046982.7,N
1579936155.1,286046979.2,N
1579936156.0,286046979.2,N
1579936205.8,286046968.4,E
1579936215.8,286046979.9,N
1579936235.6,286047001.9,P
1579936255.4,286047013.5,N
1579936275.3,286047021.7,N
1579936295.1,286047024.6,N
1579936315.8,286047023.5,N
1579936335.7,286047024.6,N
1579936355.5,286047024.6,N
1579936375.4,286047025.2,N
1579936395.2,286047024.5,N
1579936415.0,286047027.8,N
1579936415.9,286047027.8,N
1579936435.8,286047030.8,N
1579936455.6,286047030.6,N
1579936475.4,286047029.4,N
1579936495.3,286047027.3,N
1579936515.1,286047028.4,N
1579936535.9,286047017.7,N
1579936555.7,286047013.8,N
1579936575.5,286047010.5,N
1579936595.4,286047000.2,N
1579936615.2,286047004.0,N
1579936635.0,286047004.2,N
1579936636.0,286047004.2,N
1579936655.8,286047010.2,N
1579936675.6,286047011.9,N
1579936695.5,286047015.4,N
1579936715.3,286047018.5,N
1579936735.2,286047015.0,N
1579936755.9,286047015.5,N
1579936775.7,286047011.6,N
1579936795.6,286047013.5,N
1579936815.4,286047018.0,N
1579936835.2,286047022.6,N
1579936855.1,286047025.3,N
1579936856.0,286047025.3,N
1579936875.8,286047030.3,Y
1579936895.7,286047009.7,P
1579936915.5,286047006.7,N
1579936935.3,286047006.1,N
1579936955.2,286047003.0,N
1579936975.0,286047007.1,N
1579936975.9,286047007.1,N
1579936995.8,286047010.8,N
1579937015.6,286047012.0,N
1579937035.4,286047008.4,N
1579937055.3,286047003.2,N
1579937075.1,286047005.3,N
1579937095.9,286047011.5,N
1579937115.7,286047013.6,Y
1579937135.5,286047014.6,P
1579937155.4,286047023.9,P
1579937175.2,286047025.4,P
1579937195.1,286047021.0,Y
1579937196.0,286047021.0,P
1579937215.8,286047003.4,N
1579937235.6,286047002.2,N
1579937255.5,286046997.3,N
1579937275.3,286046991.0,N
1579937295.1,286046985.2,N
1579937315.9,286046981.6,N
1579937335.7,286046974.6,N
1579937355.6,286046970.7,N
1579937375.4,286046966.2,N
1579937395.2,286046971.6,N
1579937415.1,286046983.2,N
1579937416.0,286046983.2,N
1579937435.8,286046979.1,N
1579937455.6,286046979.1,N
1579937475.5,286046989.9,N
1579937495.3,286046993.2,N
1579937515.2,286046992.0,N
1579937535.9,286046992.0,N
1579937555.7,286047000.5,N
1579937575.6,286047001.5,N
1579937595.4,286046999.5,N
1579937615.2,286046995.1,N
1579937635.1,286046992.1,N
1579937636.0,286046992.1,N
1579937655.8,286046993.9,N
1579937675.7,286046992.7,N
1579937695.5,286046983.7,N
1579937715.3,286046983.4,N
1579937735.2,286046983.2,N
1579937755.0,286046989.7,N
1579937755.9,286046989.7,N
1579937775.8,286046995.2,N
1579937795.6,286047007.8,N
1579937815.4,286047011.1,N
1579937835.3,286047009.3,N
1579937855.1,286047007.1,N
1579937875.8,286047000.0,N
1579937895.7,286046995.8,N
1579937915.5,286046994.3,N
1579937935.4,286046993.1,N
1579937955.2,286046993.9,N
1579937975.0,286046993.8,N
1579937975.9,286046993.8,N
1579937995.8,286046992.7,N
1579938015.6,286046989.6,N
1579938035.4,286046989.2,N
1579938055.3,286046994.0,N
1579938075.1,286046994.2,N
1579938095.9,286046993.7,N
1579938115.7,286047001.9,N
1579938135.5,286047007.3,N
1579938155.4,286047003.0,N
1579938175.2,286047006.4,N
1579938195.1,286047006.5,N
1579938196.0,286047006.5,N
1579938215.8,286047008.9,N
1579938235.6,286047011.3,N
1579938255.5,286047015.9,N
1579938275.3,286047018.2,N
1579938295.2,286047012.7,N
1579938315.9,286047007.8,N
1579938335.7,286047000.2,N
1579938355.6,286046993.5,N
1579938375.4,286046983.6,N
1579938395.2,286046972.9,Y
1579938415.1,286046966.8,P
1579938416.0,286046966.8,N
1579938435.8,286046966.4,N
1579938455.7,286046964.2,N
1579938475.5,286046961.9,N
1579938495.3,286046958.2,Y
1579938515.2,286046984.3,P
1579938535.0,286046982.1,N
1579938535.9,286046982.1,P
1579938555.8,286046985.1,N
1579938575.6,286046980.2,Y
1579938595.4,286047001.2,P
1579938615.3,286046995.7,N
1579938635.1,286046992.6,N
1579938655.9,286046991.0,N
1579938675.7,286046983.4,N
1579938695.5,286046981.3,N
1579938715.4,286046980.5,N
1579938735.2,286046980.3,N
1579938755.0,286046976.7,Y
1579938756.0,286046976.7,P
1579938775.8,286046983.6,P
1579938795.6,286046979.4,P
1579938815.5,286046980.5,Y
1579938835.3,286046996.5,P
1579938855.1,286046997.0,N
1579938875.9,286047000.6,N
1579938895.7,286047001.7,N
1579938915.6,286047003.5,N
1579938935.4,286047000.7,N
1579938955.2,286047000.6,N
1579938975.1,286047001.9,N
1579938976.0,286047001.9,N
1579938995.8,286047001.7,N
1579939015.6,286047002.7,N
1579939035.5,286047002.6,N
1579939055.3,286047001.9,N
1579939075.2,286047002.7,N
1579939095.9,286046998.5,N
1579939115.7,286046997.7,N
1579939135.6,286046997.3,N
1579939155.4,286046998.2,N
1579939175.2,286047007.2,N
1579939195.1,286047013.5,N
1579939196.0,286047013.5,N
